Home > Weather > Gera > Past weeks

Flag for Germany Weather for the Past 2 Weeks in Gera, Thuringia, Germany

Now
37 °F

Clear.


Feels Like: 29 °F
Forecast: 30 / 43 °F
Wind: 14 mph from Southwest

Location: Leipzig-Schkeuditz

Current Time: Feb 11, 2016 at 6:59:14 AM

Latest Report: Feb 11, 2016 at 6:20 AM


Visibility: 10 mi

Pressure: 29.53 "Hg

Humidity: 87%

Dew point: 34 °F

Location of GeraLocation

Historic Weather in Gera — Graph

°F

Gera Temperature Yesterday

Maximum temperature yesterday: 43 °F (at 11:50 AM)
Minimum temperature yesterday: 37 °F (at 4:20 AM)
Average temperature yesterday: 39 °F

High & Low Weather Summary for the Past Weeks

 TemperatureHumidityPressure
High54 °F (Jan 27, 10:50 AM)100% (Feb 1, 2:50 AM)30.30 "Hg (Feb 1, 2:50 AM)
Low34 °F (Jan 28, 10:20 PM)53% (Feb 3, 3:50 PM)29.00 "Hg (Feb 9, 8:20 PM)
Average44 °F77%29.84 "Hg
* Reported Jan 27 5:20 AM — Feb 11 5:50 AM, Gera, Weather by CustomWeather, © 2016

Note: Actual official high and low records may vary slightly from our data, if they occured in-between our weather recording intervals... More about our weather records

Advertising

Gera Weather History for the Previous 24 Hours

 ConditionsComfort  
Time TempWeatherWind HumidityBarometerVisibility
5:50 AM
Thu, Feb 11
37 °FPassing clouds.14 mph87%29.53 "HgN/A
5:20 AM36 °FClear.17 mph87%29.53 "Hg10 mi
4:50 AM37 °FPassing clouds.16 mph87%29.50 "HgN/A
4:20 AM37 °FPassing clouds.18 mph87%29.50 "HgN/A
3:50 AM37 °FPassing clouds.17 mph87%29.50 "HgN/A
3:20 AM39 °FPassing clouds.17 mph81%29.47 "HgN/A
2:50 AM39 °FPassing clouds.17 mph87%29.47 "HgN/A
2:20 AM37 °FClear.20 mph87%29.47 "Hg10 mi
1:50 AM39 °FPassing clouds.18 mph81%29.45 "HgN/A
1:20 AM39 °FPassing clouds.17 mph81%29.45 "HgN/A
12:50 AM37 °FPassing clouds.15 mph87%29.45 "HgN/A
12:20 AM39 °FPassing clouds.16 mph87%29.42 "HgN/A
11:50 PM
Wed, Feb 10
39 °FPassing clouds.17 mph87%29.42 "HgN/A
10:50 PM39 °FPartly cloudy.16 mph87%29.42 "HgN/A
10:20 PM39 °FPassing clouds.16 mph81%29.42 "HgN/A
9:50 PM37 °FPartly cloudy.13 mph87%29.42 "HgN/A
9:20 PM39 °FPartly cloudy.15 mph81%29.42 "HgN/A
8:50 PM39 °FPartly cloudy.14 mph81%29.39 "HgN/A
8:20 PM39 °FPartly cloudy.13 mph81%29.39 "HgN/A
7:50 PM39 °FPartly cloudy.12 mph81%29.39 "HgN/A
7:20 PM39 °FPartly cloudy.14 mph81%29.39 "HgN/A
6:50 PM39 °FPassing clouds.10 mph81%29.36 "HgN/A
6:20 PM39 °FSprinkles. Partly cloudy.13 mph81%29.36 "HgN/A
5:50 PM39 °FSprinkles. Partly cloudy.15 mph81%29.36 "HgN/A
5:20 PM37 °FPartly cloudy.13 mph87%29.36 "HgN/A
4:50 PM39 °FScattered clouds.15 mph81%29.33 "HgN/A
4:20 PM39 °FScattered showers. Scattered clouds.18 mph81%29.33 "HgN/A
3:50 PM39 °FSprinkles. Scattered clouds.23 mph81%29.33 "HgN/A
3:20 PM41 °FSprinkles. Broken clouds.20 mph76%29.33 "HgN/A
2:50 PM43 °FSprinkles. Broken clouds.21 mph66%29.33 "HgN/A
2:20 PM41 °FSprinkles. Partly sunny.23 mph70%29.30 "HgN/A
1:50 PM43 °FPartly sunny.17 mph66%29.30 "HgN/A
1:20 PM43 °FPartly sunny.20 mph61%29.30 "HgN/A
12:50 PM43 °FPartly sunny.18 mph61%29.30 "HgN/A
12:20 PM43 °FPartly sunny.18 mph61%29.33 "HgN/A
11:50 AM43 °FBroken clouds.18 mph66%29.33 "HgN/A
11:20 AM41 °FScattered clouds.17 mph66%29.33 "HgN/A
10:50 AM41 °FSunny.14 mph70%29.33 "Hg10 mi
10:20 AM39 °FBroken clouds.14 mph70%29.33 "HgN/A
9:50 AM39 °FSunny.17 mph70%29.33 "Hg10 mi
9:20 AM39 °FSunny.14 mph70%29.33 "Hg10 mi
8:50 AM37 °FSunny.10 mph75%29.33 "Hg10 mi
8:20 AM37 °FPartly sunny.13 mph75%29.30 "HgN/A
7:50 AM37 °FBroken clouds.10 mph75%29.30 "HgN/A
7:20 AM37 °FOvercast.15 mph81%29.30 "HgN/A
6:50 AM37 °FClear.14 mph81%29.27 "Hg10 mi
6:20 AM37 °FClear.12 mph75%29.27 "Hg10 mi
Weather by CustomWeather, © 2016

See weather overviewHow to use our weather pages